Flag for Portugal Weather past 2 weeks in Lisbon, Portugal

Now
55 °F

Passing clouds.


Feels Like: 55 °F
Forecast: 55 / 67 °F
Wind: 5 mph from Northwest

Location: Lisbon Portela Airport

Current Time: Apr 27, 2015 at 7:00:33 AM

Latest Report: Apr 27, 2015 at 6:30 AM


Visibility: N/A

Pressure: 30.01 "Hg

Humidity: 94%

Dew point: 54 °F

Location of LisbonLocation

Historic Weather in Lisbon — Graph

°F

Lisbon temperature yesterday

Maximum temperature yesterday: 63 °F (at 11:00 AM)
Minimum temperature yesterday: 55 °F (at 7:00 AM)
Average temperature yesterday: 59 °F

Past Weeks' High & Low Weather Summary

 TemperatureHumidityPressure
High75 °F (Apr 13, 4:00 PM)100% (Apr 15, 1:30 AM)30.18 "Hg (Apr 15, 1:30 AM)
Low48 °F (Apr 20, 4:30 AM)35% (Apr 23, 3:00 PM)29.77 "Hg (Apr 26, 5:00 AM)
Average60 °F77%30.04 "Hg
* Reported Apr 12 6:00 AM — Apr 27 6:00 AM, Lisbon, Weather by CustomWeather, © 2015

Note: Actual official high and low records may vary slightly from our data, if they occured in-between our weather recording intervals... More about our weather records

Advertising

Lisbon weather history for previous 24 hours

 ConditionsComfort  
Time TempWeatherWind HumidityBarometerVisibility
6:00 AM
Mon, Apr 27
55 °FPassing clouds.5 mph94%29.98 "HgN/A
5:30 AM57 °FPartly cloudy.5 mph88%29.98 "HgN/A
5:00 AM55 °FPartly cloudy.2 mph94%29.98 "HgN/A
4:30 AM55 °FPassing clouds.2 mph94%29.98 "HgN/A
4:00 AM55 °FPassing clouds.No wind94%29.98 "HgN/A
3:30 AM55 °FPartly cloudy.1 mph94%29.98 "HgN/A
3:00 AM55 °FPassing clouds.5 mph94%29.95 "HgN/A
2:30 AM55 °FPassing clouds.1 mph94%29.95 "HgN/A
2:00 AM55 °FPassing clouds.5 mph94%29.95 "HgN/A
1:30 AM55 °FPassing clouds.5 mph94%29.95 "HgN/A
1:00 AM55 °FPassing clouds.5 mph94%29.98 "HgN/A
12:30 AM57 °FPassing clouds.5 mph88%29.95 "HgN/A
12:00 AM57 °FSprinkles. Partly cloudy.6 mph94%29.95 "Hg5 mi
11:30 PM
Sun, Apr 26
57 °FScattered showers. Passing clouds.7 mph88%29.95 "HgN/A
11:00 PM57 °FPassing clouds.7 mph94%29.95 "HgN/A
10:30 PM57 °FScattered showers. Passing clouds.7 mph88%29.95 "HgN/A
10:00 PM57 °FSprinkles. Passing clouds.8 mph88%29.95 "HgN/A
9:30 PM57 °FPassing clouds.8 mph88%29.92 "HgN/A
9:00 PM57 °FSprinkles. Scattered clouds.10 mph88%29.92 "HgN/A
8:30 PM59 °FScattered clouds.8 mph82%29.89 "HgN/A
8:00 PM59 °FPassing clouds.10 mph77%29.89 "HgN/A
7:30 PM59 °FScattered clouds.13 mph77%29.89 "HgN/A
7:00 PM61 °FScattered clouds.12 mph72%29.86 "HgN/A
6:30 PM61 °FScattered clouds.13 mph68%29.86 "HgN/A
6:00 PM61 °FScattered clouds.14 mph72%29.86 "HgN/A
5:30 PM63 °FScattered clouds.16 mph64%29.83 "HgN/A
5:00 PM63 °FScattered showers. Scattered clouds.16 mph68%29.83 "HgN/A
4:30 PM63 °FPartly sunny.13 mph64%29.83 "HgN/A
4:00 PM63 °FPartly sunny.16 mph64%29.83 "HgN/A
3:30 PM63 °FPartly sunny.14 mph68%29.83 "HgN/A
3:00 PM63 °FScattered clouds.15 mph73%29.83 "HgN/A
2:30 PM63 °FScattered clouds.16 mph73%29.83 "HgN/A
2:00 PM61 °FPassing clouds.15 mph77%29.83 "HgN/A
1:30 PM57 °FSprinkles. Passing clouds.16 mph82%29.83 "HgN/A
1:00 PM61 °FPassing clouds.16 mph72%29.83 "HgN/A
12:30 PM61 °FSprinkles. Scattered clouds.17 mph68%29.83 "HgN/A
12:00 PM63 °FPartly sunny.15 mph68%29.83 "HgN/A
11:30 AM63 °FPartly sunny.13 mph68%29.83 "HgN/A
11:00 AM63 °FPartly sunny.13 mph73%29.83 "HgN/A
10:30 AM61 °FPassing clouds.12 mph77%29.83 "HgN/A
10:00 AM59 °FScattered clouds.10 mph88%29.83 "HgN/A
9:30 AM61 °FBroken clouds.10 mph77%29.83 "HgN/A
9:00 AM59 °FScattered clouds.7 mph88%29.83 "HgN/A
8:30 AM59 °FPassing clouds.5 mph88%29.83 "HgN/A
8:00 AM57 °FPassing clouds.3 mph94%29.83 "HgN/A
7:30 AM55 °FPassing clouds.6 mph94%29.80 "HgN/A
7:00 AM55 °FPassing clouds.6 mph94%29.80 "HgN/A
Weather by CustomWeather, © 2015

See weather overviewHow to use our weather pages